Location: Lac Lasalle
(46.0398°N, 74.1576°W)
Time: 06:01:01
(UTC-04:00)

ISS - Pass Details

Date: 27 March 2019
Orbit: 408 x 410 km, 51.6° (Epoch: 24 April)

Event Time Altitude Azimuth Distance (km) Brightness Sun altitude
Rises 19:43:42 0° 254° (WSW) 2,331 1.4 -5.2°
Reaches altitude 10° 19:45:48 10° 259° (W) 1,471 0.4 -5.6°
Maximum altitude 19:49:03 55° 338° (NNW) 498 -3.1 -6.1°
Drops below altitude 10° 19:52:19 10° 58° (ENE) 1,475 -1.4 -6.7°
Enters shadow 19:53:36 - 61° (ENE) 1,995 -0.8 -6.9°
